Date String (YYYY-MM-DD hh:mm:ss) UTC,Instrument flags,Ambient pressure (hPa),Sample flow (lpm),Bypass flow (lpm),Sample temperature (°C),Ambient temperature (°C),ASC tube jacket temperature (°C),LED temperature (°C),Box temperature (°C),Sample RH (%),Span deviation,Mass concentration (μg/m³),Mass concentration (μg/m³),Mass concentration (μg/m³)
DateTimeUTC,F1_M11,P_M11,Q1_M11,Q2_M11,T1_M11,T2_M11,T3_M11,T4_M11,T5_M11,U1_M11,ZSPAN_M11,X2_M11,X0_M11,X1_M11
2023-02-04 18:00:00,,0825.0,4.99,0.00,21.9,20.7,00.0,30.7,23.6,07.9,0000.0,0001.02,0003.39,0000.46
2023-02-04 18:01:00,,0825.2,4.97,0.00,21.9,20.7,00.0,30.7,23.6,08.5,0000.0,0001.00,0003.35,0000.47
2023-02-04 18:02:00,,0825.2,4.99,0.00,21.9,20.7,00.0,30.7,23.7,08.8,0000.0,0001.00,0003.34,0000.46
2023-02-04 18:03:00,,0825.2,5.02,0.00,21.9,20.8,00.0,30.7,23.7,08.8,0000.0,0001.04,0003.52,0000.46
2023-02-04 18:04:00,,0825.1,5.03,0.00,21.9,20.8,00.0,30.7,23.7,08.3,0000.0,0001.03,0003.51,0000.47
2023-02-04 18:05:00,,0825.1,5.00,0.00,21.9,20.8,00.0,30.7,23.7,08.4,0000.0,0001.02,0003.51,0000.46
2023-02-04 18:06:00,,0825.1,4.97,0.00,21.9,20.8,00.0,30.8,23.7,08.6,0000.0,0001.00,0004.30,0000.46
2023-02-04 18:07:00,,0825.1,5.00,0.00,21.9,20.8,00.0,30.8,23.7,08.2,0000.0,0001.04,0004.77,0000.48
2023-02-04 18:08:00,,0825.1,5.02,0.00,22.0,20.8,00.0,30.8,23.7,09.0,0000.0,0001.05,0005.09,0000.48
2023-02-04 18:09:00,,0825.0,5.03,0.00,22.0,20.8,00.0,30.8,23.7,08.8,0000.0,0001.08,0004.80,0000.48
2023-02-04 18:10:00,,0825.0,4.99,0.00,22.0,20.8,00.0,30.8,23.7,08.5,0000.0,0001.03,0004.50,0000.46
2023-02-04 18:11:00,,0825.0,4.98,0.00,22.0,20.8,00.0,30.8,23.8,08.8,0000.0,0001.01,0004.12,0000.45
2023-02-04 18:12:00,,0824.9,5.03,0.00,22.0,20.8,00.0,30.8,23.7,09.1,0000.0,0000.98,0004.02,0000.43
2023-02-04 18:13:00,,0824.9,5.01,0.00,22.0,20.8,00.0,30.8,23.8,09.0,0000.0,0001.00,0004.08,0000.43
2023-02-04 18:14:00,,0825.0,4.97,0.00,22.0,20.8,00.0,30.8,23.8,08.5,0000.0,0000.96,0004.02,0000.42
2023-02-04 18:15:00,,0825.1,4.99,0.00,22.0,20.9,00.0,30.8,23.8,08.8,0000.0,0000.91,0004.35,0000.41
2023-02-04 18:16:00,,0825.1,5.02,0.00,22.0,20.9,00.0,30.8,23.8,09.7,0000.0,0000.89,0004.28,0000.40
2023-02-04 18:17:00,,0825.1,5.01,0.00,22.0,20.9,00.0,30.8,23.9,09.1,0000.0,0000.93,0003.71,0000.39
2023-02-04 18:18:00,,0825.0,4.97,0.00,22.1,21.0,00.0,30.8,23.9,09.1,0000.0,0000.93,0003.24,0000.39
2023-02-04 18:19:00,,0824.9,4.96,0.00,22.1,21.0,00.0,30.9,23.9,09.7,0000.0,0000.87,0002.39,0000.38
2023-02-04 18:20:00,,0824.9,5.02,0.00,22.1,20.9,00.0,30.9,23.8,08.9,0000.0,0000.84,0002.48,0000.38
2023-02-04 18:21:00,,0824.9,5.01,0.00,22.1,21.0,00.0,30.9,23.9,09.4,0000.0,0000.85,0003.13,0000.39
2023-02-04 18:22:00,,0824.9,5.00,0.00,22.1,21.0,00.0,30.9,23.9,09.8,0000.0,0000.88,0003.26,0000.39
2023-02-04 18:23:00,,0825.0,4.95,0.00,22.1,21.0,00.0,30.9,23.9,09.0,0000.0,0000.91,0003.51,0000.40
2023-02-04 18:24:00,,0825.1,5.04,0.00,22.1,21.1,00.0,30.9,24.0,08.9,0000.0,0000.96,0003.61,0000.41
2023-02-04 18:25:00,,0825.1,5.00,0.00,22.2,21.1,00.0,30.9,24.0,09.0,0000.0,0000.99,0003.59,0000.41
2023-02-04 18:26:00,,0825.0,4.98,0.00,22.2,21.2,00.0,30.9,24.0,08.9,0000.0,0001.04,0003.24,0000.43
2023-02-04 18:27:00,,0825.0,4.98,0.00,22.2,21.2,00.0,31.0,24.0,09.8,0000.0,0001.08,0003.36,0000.44
2023-02-04 18:28:00,,0824.9,5.03,0.00,22.2,21.3,00.0,31.0,24.1,09.2,0000.0,0001.03,0003.22,0000.45
2023-02-04 18:29:00,,0825.0,5.00,0.00,22.3,21.3,00.0,31.0,24.1,10.0,0000.0,0001.02,0003.19,0000.45
2023-02-04 18:30:00,,0825.0,4.96,0.00,22.3,21.3,00.0,31.0,24.1,09.8,0000.0,0001.05,0003.26,0000.45
2023-02-04 18:31:00,,0824.9,5.03,0.00,22.3,21.4,00.0,31.0,24.2,09.3,0000.0,0001.07,0003.27,0000.45
2023-02-04 18:32:00,,0824.9,5.03,0.00,22.3,21.4,00.0,31.1,24.2,08.9,0000.0,0001.11,0002.67,0000.46
2023-02-04 18:33:00,,0824.9,4.96,0.00,22.4,21.5,00.0,31.1,24.3,08.1,0000.0,0001.12,0003.06,0000.47
2023-02-04 18:34:00,,0824.9,5.03,0.00,22.4,21.5,00.0,31.1,24.3,08.1,0000.0,0001.15,0003.16,0000.48
2023-02-04 18:35:00,,0824.9,5.01,0.00,22.4,21.6,00.0,31.1,24.3,09.2,0000.0,0001.13,0003.06,0000.48
2023-02-04 18:36:00,,0824.9,4.96,0.00,22.5,21.6,00.0,31.2,24.3,08.2,0000.0,0001.08,0002.90,0000.47
2023-02-04 18:37:00,,0825.0,5.03,0.00,22.5,21.6,00.0,31.2,24.3,08.8,0000.0,0001.08,0002.94,0000.46
2023-02-04 18:38:00,,0825.0,4.99,0.00,22.5,21.6,00.0,31.2,24.3,09.1,0000.0,0001.07,0002.92,0000.46
2023-02-04 18:39:00,,0825.0,4.96,0.00,22.6,21.6,00.0,31.2,24.4,07.9,0000.0,0001.07,0003.44,0000.45
2023-02-04 18:40:00,,0824.9,5.00,0.00,22.6,21.7,00.0,31.3,24.4,08.0,0000.0,0001.04,0004.26,0000.45
2023-02-04 18:41:00,,0824.9,5.04,0.00,22.6,21.7,00.0,31.3,24.5,08.7,0000.0,0001.05,0004.25,0000.45
2023-02-04 18:42:00,,0825.0,4.96,0.00,22.6,21.8,00.0,31.3,24.5,09.0,0000.0,0001.06,0004.29,0000.45
2023-02-04 18:43:00,,0825.1,5.00,0.00,22.7,21.8,00.0,31.3,24.6,09.0,0000.0,0001.01,0004.19,0000.44
2023-02-04 18:44:00,,0825.1,5.04,0.00,22.7,21.8,00.0,31.4,24.6,09.0,0000.0,0000.96,0004.86,0000.43
2023-02-04 18:45:00,,0825.2,4.96,0.00,22.7,21.8,00.0,31.4,24.7,08.5,0000.0,0000.92,0005.70,0000.43
2023-02-04 18:46:00,,0825.2,5.01,0.00,22.8,21.9,00.0,31.4,24.7,08.9,0000.0,0000.93,0006.13,0000.43
2023-02-04 18:47:00,,0825.2,5.02,0.00,22.8,21.9,00.0,31.4,24.7,09.0,0000.0,0000.92,0006.15,0000.43
2023-02-04 18:48:00,,0825.3,4.96,0.00,22.8,21.9,00.0,31.5,24.7,08.9,0000.0,0000.88,0005.96,0000.44
2023-02-04 18:49:00,,0825.3,5.02,0.00,22.8,21.9,00.0,31.5,24.7,09.3,0000.0,0000.86,0006.31,0000.45
2023-02-04 18:50:00,,0825.2,5.03,0.00,22.8,21.9,00.0,31.5,24.7,09.0,0000.0,0000.90,0007.21,0000.47
2023-02-04 18:51:00,,0825.3,4.94,0.00,22.9,21.9,00.0,31.5,24.7,09.9,0000.0,0000.98,0007.06,0000.48
2023-02-04 18:52:00,,0825.3,5.03,0.00,22.9,21.9,00.0,31.6,24.8,09.0,0000.0,0001.03,0007.76,0000.48
2023-02-04 18:53:00,,0825.3,5.01,0.00,22.9,22.0,00.0,31.6,24.8,08.6,0000.0,0001.04,0007.76,0000.48
2023-02-04 18:54:00,,0825.3,4.95,0.00,22.9,22.0,00.0,31.6,24.8,09.0,0000.0,0001.07,0008.18,0000.49
2023-02-04 18:55:00,,0825.4,5.01,0.00,23.0,22.0,00.0,31.6,24.8,09.5,0000.0,0001.14,0007.56,0000.49
2023-02-04 18:56:00,,0825.3,5.03,0.00,23.0,22.1,00.0,31.6,24.9,09.4,0000.0,0001.13,0006.69,0000.50
2023-02-04 18:57:00,,0825.3,4.95,0.00,23.0,22.1,00.0,31.7,24.9,08.8,0000.0,0001.09,0006.24,0000.50
2023-02-04 18:58:00,,0825.3,5.03,0.00,23.0,22.1,00.0,31.7,24.9,08.3,0000.0,0001.10,0006.29,0000.50
2023-02-04 18:59:00,,0825.3,5.02,0.00,23.1,22.2,00.0,31.7,24.9,08.3,0000.0,0001.12,0006.40,0000.50
